SCP
0 0 0 0 0 0 0 0 0 0 -0 0 0 0 0 0 0 0 0 0 0 0 0 0 0 0 0 0 0 0 0 0 0 0 0 0 0 0 0 0 0 0 0 0
0 0 -0 0 -0 -0 -0 -0 -0 -0 -0 0 -0 -0 -0 -0 0 0 0 0 0 0 0 0 0 0 -0 0 0 0 0 0 0 0 0 0 0 0 0 0 0 0 0 0
-0 0 0 0 0 -0 -0 -0 -0 -0 -0 0 0 0 -0 -0 0 0 -0 0 0 0 0 0 0 -0 -0 0 0 0 0 0 0 0 0 0 0 0 0 0 0 0 0 0
0 0 0 0 0 0 0 0 0 0 0 -0 -0 -0 -0 -0 -0 -0 0 -0 0 0 0 0 0 0 0 0 0 0 0 0 0 0 0 0 0 0 0 0 0 0 1 1
0 0 0 0 0 -0 0 -0 -0 0 -0 0 0 0 0 0 0 0 -0 0 0 0 0 0 0 0 0 0 0 0 0 0 0 0 0 0 0 0 0 0 0 0 0 0
-0 -0 0 0 -0 0 0 -0 0 0 0 0 0 0 0 -0 0 0 -0 0 0 0 0 0 0 0 0 -0 0 0 0 0 0 0 0 0 0 0 0 0 0 0 0 0
0 0 0 0 0 0 0 0 0 0 0 0 0 0 0 -0 -0 -0 -0 -0 0 -0 -0 -0 0 0 0 -0 0 0 0 0 0 0 0 0 0 0 0 0 0 0 0 0
0 0 0 0 0 0 0 0 0 0 0 0 0 0 0 0 0 -0 -0 -0 -0 -0 0 0 0 0 0 0 0 0 0 0 0 0 0 0 0 0 0 0 0 0 0 0
0 0 0 0 0 -0 0 0 0 0 0 0 0 0 0 0 -0 -0 -0 -0 0 0 0 0 0 0 0 0 0 -0 0 0 -0 -0 -0 0 0 0 0 0 0 0 0 0
0 0 0 0 0 0 0 0 0 0 0 0 0 0 0 0 0 0 0 0 0 0 0 0 0 0 0 0 -0 0 0 0 0 0 -0 0 0 0 0 0 0 0 0 0
0 0 0 0 0 0 0 0 0 0 0 0 0 0 0 0 0 0 0 0 0 0 0 0 0 0 0 0 0 0 0 0 -0 0 0 0 0 0 0 0 0 0 0 0
0 0 0 0 0 0 0 0 0 0 0 0 0 0 0 0 0 0 0 0 0 0 0 0 0 0 0 0 -0 -0 -0 -0 -0 -0 -0 -0 0 0 0 0 0 0 0 0
0 0 0 0 0 0 0 0 0 0 0 0 0 0 0 0 0 0 0 0 0 0 0 0 0 0 0 -0 -0 -0 -0 -0 -0 -0 -0 0 0 0 0 0 0 0 0 0
0 0 0 0 0 0 0 0 0 0 0 0 0 -0 0 0 0 0 0 0 0 0 0 0 -0 -0 -0 -0 -0 -0 0 0 0 -0 -0 -0 0 0 0 0 0 0 0 0
0 0 0 0 0 0 0 0 0 0 0 0 0 0 0 0 0 0 0 0 0 -0 -0 -0 -0 -0 -0 -0 -0 -0 -0 -0 -0 -0 -0 -0 0 0 0 0 0 0 0 0
0 0 0 0 0 0 0 0 0 0 0 0 0 0 0 0 0 0 0 0 -0 -0 -0 -0 -0 -0 -0 -0 -0 -0 -0 -0 -0 0 0 0 0 0 0 0 0 0 0 0
0 0 0 0 0 0 0 0 0 0 0 0 0 0 0 0 0 0 0 0 -0 -0 -0 -0 -0 -0 -0 -0 -0 -0 -0 -0 -0 -0 -0 -0 0 0 0 0 0 0 0 0
0 0 0 0 0 0 0 0 0 0 0 0 0 0 0 0 0 0 -0 -0 -0 -0 -0 -0 -0 -0 -0 -0 -0 -0 -0 -0 -0 -0 -0 -0 -0 -0 -0 -0 -0 0 0 0
0 0 0 0 0 0 0 0 0 0 0 0 0 0 0 0 0 0 0 -0 -0 -0 -0 -0 -0 -0 -0 -0 -0 -0 -0 -0 -0 -0 -0 -0 -0 -0 -0 -0 -0 -0 -0 -0
0 0 0 0 0 0 0 0 0 0 -0 -0 -0 -0 0 0 0 0 -0 0 0 -0 -0 -0 -0 -0 -0 -0 -0 -0 -0 -0 -0 0 0 0 0 0 0 0 -0 -0 -0 -0
0 0 0 0 0 0 0 0 0 0 -0 -0 -0 -0 -0 0 0 0 0 -0 -0 -0 0 0 0 0 0 0 0 0 0 0 0 0 0 0 0 0 0 0 0 0 0 0
0 0 0 0 0 0 0 0 0 0 0 0 0 0 0 0 0 0 0 0 0 0 0 0 0 0 0 0 0 0 0 0 0 0 0 0 0 0 0 0 0 0 0 0
0 0 0 0 0 0 0 0 0 0 0 0 0 0 0 0 0 0 0 0 0 0 0 0 0 0 0 0 0 0 0 0 0 0 0 0 0 0 0 0 0 0 0 0
0 0 0 0 0 0 0 0 0 0 0 0 0 0 0 0 0 0 0 0 0 0 0 0 0 0 0 0 0 0 0 0 0 0 0 0 0 0 0 0 0 0 0 0
0 0 0 0 0 0 0 0 0 0 0 0 0 0 0 0 0 0 0 0 0 0 0 0 0 0 0 0 0 0 0 0 0 0 0 0 0 0 0 0 0 0 0 0
0 0 0 0 0 0 0 0 0 0 0 0 0 0 0 0 0 0 0 0 0 0 0 0 0 0 0 0 0 0 0 0 0 0 0 0 0 0 0 0 0 0 -0 -0
Wind_Speed_500mb
5 7 10 16 15 6 4 14 28 33 35 30 36 47 41 51 37 40 57 64 60 55 60 52 45 48 46 57 57 53 52 49 51 59 61 75 85 85 91 86 84 78 69 71
6 15 16 15 15 15 16 29 38 30 27 14 27 41 44 38 26 45 52 59 58 58 51 39 41 47 55 55 52 52 49 40 39 49 61 71 83 97 73 69 78 78 76 72
12 11 11 9 18 24 27 29 30 29 26 25 26 23 13 7 19 33 41 39 35 36 41 35 40 46 50 43 39 47 45 35 34 39 50 79 92 83 69 63 72 80 79 74
12 11 16 14 19 17 26 16 27 28 14 6 7 10 10 13 12 11 29 42 49 37 46 34 35 29 29 31 37 35 33 28 28 36 17 84 87 80 75 75 83 84 79 74
7 6 11 9 11 13 20 8 18 14 20 8 4 4 11 15 16 16 15 23 36 44 37 36 30 25 14 16 26 32 40 42 34 45 21 51 51 48 64 69 72 70 70 71
16 12 7 8 14 24 21 15 17 4 3 5 10 8 2 11 17 25 16 35 21 38 35 25 25 15 4 11 14 33 37 26 12 37 35 36 35 28 26 34 46 48 46 49
3 6 6 13 15 7 8 4 5 3 1 7 6 6 7 23 33 14 14 31 31 18 27 28 19 16 11 34 37 20 33 30 31 49 34 37 34 33 31 38 34 37 42 46
11 13 6 10 11 6 7 4 4 7 6 7 4 7 6 21 17 16 24 39 36 32 38 35 28 15 23 14 26 41 29 39 60 41 44 37 43 38 22 30 46 49 50 46
7 9 9 16 11 14 4 5 4 7 4 6 7 7 8 29 31 35 46 40 22 53 57 44 35 26 25 25 27 21 31 41 31 24 17 28 41 16 28 27 43 47 41 47
4 8 11 10 4 14 12 5 2 4 8 6 8 5 9 25 19 19 20 15 37 63 59 49 42 40 34 33 31 25 23 12 4 7 11 3 39 33 27 42 41 55 79 70
3 4 11 3 3 7 6 9 4 5 3 5 6 6 9 11 11 11 15 31 42 45 49 48 48 45 44 45 45 40 32 22 14 5 7 13 20 26 35 44 46 46 54 72
3 4 9 14 5 5 6 8 4 6 2 5 6 3 15 18 8 5 22 42 55 56 52 47 40 37 42 42 39 36 31 29 26 21 13 3 11 20 27 32 37 42 43 44
2 4 9 16 11 12 9 12 8 4 6 3 5 2 8 9 7 24 31 43 45 43 38 33 32 33 32 31 29 28 26 24 22 20 16 10 4 6 13 21 29 34 38 40
1 5 7 8 11 6 14 27 15 6 7 4 2 10 4 7 11 16 26 31 35 33 33 32 32 31 30 31 31 28 26 26 26 24 23 22 21 21 22 23 27 32 33 38
4 2 4 7 11 6 4 12 19 11 5 6 12 11 10 10 10 10 15 15 17 23 30 32 31 30 29 28 27 26 28 30 32 32 33 36 38 38 40 41 42 41 40 43
7 3 3 6 11 9 5 9 11 12 10 11 8 3 9 11 17 12 8 7 10 15 19 28 30 31 37 38 38 38 38 39 39 38 36 37 41 42 45 49 54 55 54 52
4 5 4 7 9 10 11 8 3 2 4 11 8 11 11 9 11 9 8 3 8 15 25 28 28 34 33 34 38 40 42 43 43 43 42 42 41 41 45 50 56 61 61 63
3 5 3 5 7 5 9 3 5 9 8 10 4 10 15 12 6 8 9 6 6 14 25 31 35 33 35 43 46 49 51 52 55 55 58 60 62 65 67 65 57 51 55 64
4 6 2 2 3 11 6 8 9 9 11 16 15 10 14 13 10 9 7 3 11 20 27 31 35 41 43 45 50 52 52 54 54 54 56 60 64 66 66 65 67 68 64 57
6 7 6 4 1 9 9 5 9 6 12 22 30 21 18 14 4 6 8 10 20 28 41 44 41 41 41 42 46 48 50 52 56 57 56 58 60 63 68 73 75 73 69 66
2 4 6 3 5 14 9 14 13 8 12 24 42 31 22 8 8 6 16 26 36 43 35 34 36 40 42 45 49 50 48 48 52 52 55 59 61 65 67 71 74 78 76 67
10 8 8 4 6 13 21 12 14 11 5 36 38 33 29 22 12 15 21 24 24 25 28 30 35 37 37 38 40 38 40 41 42 44 47 49 56 66 73 75 74 72 74 75
6 11 6 15 11 7 55 12 39 10 24 34 37 36 31 27 23 21 20 19 21 22 26 29 33 36 34 35 34 38 43 38 47 53 58 62 66 67 65 69 74 77 74 70
8 11 7 5 6 20 36 57 26 29 25 34 34 34 32 29 25 23 21 22 23 22 25 27 30 33 35 35 37 33 41 40 53 50 54 61 63 67 66 68 68 70 76 73
14 11 10 13 17 25 35 46 57 39 33 34 35 35 33 28 24 22 20 20 19 21 22 25 29 34 37 38 41 35 42 46 49 50 57 58 61 64 70 71 70 71 73 72
26 17 12 14 27 15 13 16 51 48 45 41 41 37 33 27 23 21 19 18 20 21 24 29 32 36 34 38 44 40 41 42 47 50 49 54 53 60 63 71 78 74 71 73
Wind_Direction_500mb
52 55 250 226 225 242 306 272 276 281 286 285 277 277 278 277 244 238 246 252 256 265 263 263 245 254 257 266 276 260 256 262 272 287 262 226 215 211 204 203 215 204 209 207
9 265 255 242 234 232 246 272 279 284 273 262 268 270 265 264 236 226 235 249 262 266 256 231 246 263 268 269 265 250 252 254 273 284 246 221 217 201 197 200 205 202 208 209
248 241 266 277 265 262 258 262 270 258 297 269 272 280 303 280 210 232 249 265 266 264 223 235 256 272 277 266 252 244 244 252 278 279 204 200 199 194 186 190 205 204 207 211
252 272 242 259 259 243 282 240 250 265 283 268 68 295 325 344 285 226 271 287 282 276 241 247 259 270 257 250 244 240 235 252 282 235 192 181 180 183 181 195 203 211 215 219
251 214 238 275 242 166 242 298 279 269 285 290 212 105 286 348 356 358 338 338 277 254 232 235 243 220 240 266 266 250 245 247 277 236 203 160 164 181 190 197 200 203 207 206
264 298 234 242 269 237 261 307 283 210 281 289 184 153 346 5 319 304 321 331 314 233 218 214 197 180 115 3 298 246 214 228 263 196 207 190 181 168 174 187 195 202 206 212
283 247 270 226 280 202 239 263 297 279 323 259 10 178 20 320 300 255 315 328 333 252 215 180 175 134 38 34 24 107 204 217 201 191 170 175 169 181 192 208 206 201 206 211
19 343 236 186 222 260 260 220 274 353 353 353 10 3 346 331 13 74 60 60 62 67 101 77 51 32 17 14 24 53 75 179 158 186 193 182 171 170 183 189 203 212 219 226
17 282 261 225 203 175 1 263 265 297 290 62 340 358 229 2 32 47 61 67 44 76 77 65 58 43 26 23 35 61 68 140 172 180 203 239 212 226 234 237 235 229 227 246
258 288 231 289 157 216 207 208 251 309 358 36 341 23 12 354 19 57 86 114 86 80 79 77 71 63 59 56 59 63 69 98 200 242 292 284 219 237 229 254 262 243 241 260
241 209 289 278 203 261 318 307 251 114 162 57 351 22 317 336 17 87 109 77 85 84 81 77 76 71 67 66 65 66 68 74 80 101 146 181 219 250 254 259 264 268 260 259
195 200 271 246 269 283 224 291 276 118 337 39 104 1 285 267 267 10 75 72 77 81 81 78 75 66 59 58 59 59 60 64 63 61 57 349 260 255 258 263 266 266 266 260
338 335 329 347 2 354 9 326 302 87 89 338 99 220 315 236 73 57 69 77 79 75 70 64 54 46 38 33 29 25 21 22 20 23 32 40 10 267 258 258 262 265 270 270
177 90 136 176 229 259 329 333 353 95 81 142 127 152 271 58 80 73 81 81 76 68 55 42 32 24 15 8 360 353 346 342 336 332 330 325 315 309 298 291 283 277 273 272
100 87 22 270 266 292 281 328 355 51 176 125 198 167 196 177 166 148 113 95 71 50 36 29 27 21 12 7 360 355 348 344 338 327 317 311 304 296 290 286 282 281 278 277
348 210 69 292 327 4 346 345 359 18 51 59 120 238 180 166 155 158 152 118 76 48 25 19 14 8 5 360 352 351 347 344 336 330 325 315 307 303 299 292 287 284 281 279
7 128 79 276 351 341 320 228 184 240 278 157 173 224 165 179 186 187 201 236 19 10 359 357 358 4 352 346 347 345 350 344 339 341 337 328 321 314 304 298 294 289 284 280
188 106 106 253 18 359 253 300 216 222 225 234 237 179 179 182 185 261 270 259 321 343 347 354 357 354 350 348 339 338 340 337 337 336 333 331 329 325 324 322 317 305 294 288
173 128 118 143 223 285 283 236 190 181 266 187 181 193 192 174 179 207 195 260 325 336 350 348 345 343 338 333 329 326 326 327 327 326 326 327 327 326 324 320 317 316 314 307
81 72 119 140 182 232 251 199 159 107 292 185 175 188 183 173 197 226 234 300 321 328 329 330 329 325 316 309 308 311 312 314 314 317 319 319 321 318 318 318 318 316 315 310
356 353 198 195 252 285 225 158 132 101 245 169 185 197 182 187 219 325 314 305 300 302 310 315 312 311 314 313 311 310 309 309 313 315 315 316 318 317 315 312 312 314 314 311
190 164 211 146 221 281 154 110 167 224 278 179 189 200 201 218 234 258 277 286 295 305 306 303 301 303 304 308 311 301 302 306 311 312 311 313 313 316 317 316 313 313 312 311
256 192 207 190 219 239 186 204 210 210 185 192 199 199 203 206 220 243 257 269 285 294 296 299 303 306 311 317 318 300 319 309 312 307 314 317 314 317 318 317 313 313 313 310
264 193 225 2 269 233 223 224 235 226 222 206 205 205 210 225 232 243 254 265 273 278 282 288 295 306 313 318 324 311 321 317 319 317 312 317 320 322 321 318 315 311 307 306
220 161 218 255 279 275 253 239 234 221 215 212 212 217 218 223 228 232 238 249 263 272 281 289 302 313 321 322 330 320 316 318 318 319 328 332 332 328 322 317 314 313 309 305
187 206 194 245 219 207 257 280 226 217 218 216 215 211 217 229 239 249 258 269 277 286 292 299 308 313 319 321 324 323 318 320 326 327 332 335 328 328 326 319 323 323 314 319
Wind_Speed_850mb
5 7 10 16 15 6 4 14 28 33 35 30 36 47 41 51 37 40 57 64 60 55 60 52 45 48 46 57 57 53 52 49 51 59 61 75 85 85 91 86 84 78 69 71
6 15 16 15 15 15 16 29 38 30 27 14 27 41 44 38 26 45 52 59 58 58 51 39 41 47 55 55 52 52 49 40 39 49 61 71 83 97 73 69 78 78 76 72
12 11 11 9 18 24 27 29 30 29 26 25 26 23 13 7 19 33 41 39 35 36 41 35 40 46 50 43 39 47 45 35 34 39 50 79 92 83 69 63 72 80 79 74
12 11 16 14 19 17 26 16 27 28 14 6 7 10 10 13 12 11 29 42 49 37 46 34 35 29 29 31 37 35 33 28 28 36 17 84 87 80 75 75 83 84 79 74
7 6 11 9 11 13 20 8 18 14 20 8 4 4 11 15 16 16 15 23 36 44 37 36 30 25 14 16 26 32 40 42 34 45 21 51 51 48 64 69 72 70 70 71
16 12 7 8 14 24 21 15 17 4 3 5 10 8 2 11 17 25 16 35 21 38 35 25 25 15 4 11 14 33 37 26 12 37 35 36 35 28 26 34 46 48 46 49
3 6 6 13 15 7 8 4 5 3 1 7 6 6 7 23 33 14 14 31 31 18 27 28 19 16 11 34 37 20 33 30 31 49 34 37 34 33 31 38 34 37 42 46
11 13 6 10 11 6 7 4 4 7 6 7 4 7 6 21 17 16 24 39 36 32 38 35 28 15 23 14 26 41 29 39 60 41 44 37 43 38 22 30 46 49 50 46
7 9 9 16 11 14 4 5 4 7 4 6 7 7 8 29 31 35 46 40 22 53 57 44 35 26 25 25 27 21 31 41 31 24 17 28 41 16 28 27 43 47 41 47
4 8 11 10 4 14 12 5 2 4 8 6 8 5 9 25 19 19 20 15 37 63 59 49 42 40 34 33 31 25 23 12 4 7 11 3 39 33 27 42 41 55 79 70
3 4 11 3 3 7 6 9 4 5 3 5 6 6 9 11 11 11 15 31 42 45 49 48 48 45 44 45 45 40 32 22 14 5 7 13 20 26 35 44 46 46 54 72
3 4 9 14 5 5 6 8 4 6 2 5 6 3 15 18 8 5 22 42 55 56 52 47 40 37 42 42 39 36 31 29 26 21 13 3 11 20 27 32 37 42 43 44
2 4 9 16 11 12 9 12 8 4 6 3 5 2 8 9 7 24 31 43 45 43 38 33 32 33 32 31 29 28 26 24 22 20 16 10 4 6 13 21 29 34 38 40
1 5 7 8 11 6 14 27 15 6 7 4 2 10 4 7 11 16 26 31 35 33 33 32 32 31 30 31 31 28 26 26 26 24 23 22 21 21 22 23 27 32 33 38
4 2 4 7 11 6 4 12 19 11 5 6 12 11 10 10 10 10 15 15 17 23 30 32 31 30 29 28 27 26 28 30 32 32 33 36 38 38 40 41 42 41 40 43
7 3 3 6 11 9 5 9 11 12 10 11 8 3 9 11 17 12 8 7 10 15 19 28 30 31 37 38 38 38 38 39 39 38 36 37 41 42 45 49 54 55 54 52
4 5 4 7 9 10 11 8 3 2 4 11 8 11 11 9 11 9 8 3 8 15 25 28 28 34 33 34 38 40 42 43 43 43 42 42 41 41 45 50 56 61 61 63
3 5 3 5 7 5 9 3 5 9 8 10 4 10 15 12 6 8 9 6 6 14 25 31 35 33 35 43 46 49 51 52 55 55 58 60 62 65 67 65 57 51 55 64
4 6 2 2 3 11 6 8 9 9 11 16 15 10 14 13 10 9 7 3 11 20 27 31 35 41 43 45 50 52 52 54 54 54 56 60 64 66 66 65 67 68 64 57
6 7 6 4 1 9 9 5 9 6 12 22 30 21 18 14 4 6 8 10 20 28 41 44 41 41 41 42 46 48 50 52 56 57 56 58 60 63 68 73 75 73 69 66
2 4 6 3 5 14 9 14 13 8 12 24 42 31 22 8 8 6 16 26 36 43 35 34 36 40 42 45 49 50 48 48 52 52 55 59 61 65 67 71 74 78 76 67
10 8 8 4 6 13 21 12 14 11 5 36 38 33 29 22 12 15 21 24 24 25 28 30 35 37 37 38 40 38 40 41 42 44 47 49 56 66 73 75 74 72 74 75
6 11 6 15 11 7 55 12 39 10 24 34 37 36 31 27 23 21 20 19 21 22 26 29 33 36 34 35 34 38 43 38 47 53 58 62 66 67 65 69 74 77 74 70
8 11 7 5 6 20 36 57 26 29 25 34 34 34 32 29 25 23 21 22 23 22 25 27 30 33 35 35 37 33 41 40 53 50 54 61 63 67 66 68 68 70 76 73
14 11 10 13 17 25 35 46 57 39 33 34 35 35 33 28 24 22 20 20 19 21 22 25 29 34 37 38 41 35 42 46 49 50 57 58 61 64 70 71 70 71 73 72
26 17 12 14 27 15 13 16 51 48 45 41 41 37 33 27 23 21 19 18 20 21 24 29 32 36 34 38 44 40 41 42 47 50 49 54 53 60 63 71 78 74 71 73
Wind_Direction_850mb
52 55 250 226 225 242 306 272 276 281 286 285 277 277 278 277 244 238 246 252 256 265 263 263 245 254 257 266 276 260 256 262 272 287 262 226 215 211 204 203 215 204 209 207
9 265 255 242 234 232 246 272 279 284 273 262 268 270 265 264 236 226 235 249 262 266 256 231 246 263 268 269 265 250 252 254 273 284 246 221 217 201 197 200 205 202 208 209
248 241 266 277 265 262 258 262 270 258 297 269 272 280 303 280 210 232 249 265 266 264 223 235 256 272 277 266 252 244 244 252 278 279 204 200 199 194 186 190 205 204 207 211
252 272 242 259 259 243 282 240 250 265 283 268 68 295 325 344 285 226 271 287 282 276 241 247 259 270 257 250 244 240 235 252 282 235 192 181 180 183 181 195 203 211 215 219
251 214 238 275 242 166 242 298 279 269 285 290 212 105 286 348 356 358 338 338 277 254 232 235 243 220 240 266 266 250 245 247 277 236 203 160 164 181 190 197 200 203 207 206
264 298 234 242 269 237 261 307 283 210 281 289 184 153 346 5 319 304 321 331 314 233 218 214 197 180 115 3 298 246 214 228 263 196 207 190 181 168 174 187 195 202 206 212
283 247 270 226 280 202 239 263 297 279 323 259 10 178 20 320 300 255 315 328 333 252 215 180 175 134 38 34 24 107 204 217 201 191 170 175 169 181 192 208 206 201 206 211
19 343 236 186 222 260 260 220 274 353 353 353 10 3 346 331 13 74 60 60 62 67 101 77 51 32 17 14 24 53 75 179 158 186 193 182 171 170 183 189 203 212 219 226
17 282 261 225 203 175 1 263 265 297 290 62 340 358 229 2 32 47 61 67 44 76 77 65 58 43 26 23 35 61 68 140 172 180 203 239 212 226 234 237 235 229 227 246
258 288 231 289 157 216 207 208 251 309 358 36 341 23 12 354 19 57 86 114 86 80 79 77 71 63 59 56 59 63 69 98 200 242 292 284 219 237 229 254 262 243 241 260
241 209 289 278 203 261 318 307 251 114 162 57 351 22 317 336 17 87 109 77 85 84 81 77 76 71 67 66 65 66 68 74 80 101 146 181 219 250 254 259 264 268 260 259
195 200 271 246 269 283 224 291 276 118 337 39 104 1 285 267 267 10 75 72 77 81 81 78 75 66 59 58 59 59 60 64 63 61 57 349 260 255 258 263 266 266 266 260
338 335 329 347 2 354 9 326 302 87 89 338 99 220 315 236 73 57 69 77 79 75 70 64 54 46 38 33 29 25 21 22 20 23 32 40 10 267 258 258 262 265 270 270
177 90 136 176 229 259 329 333 353 95 81 142 127 152 271 58 80 73 81 81 76 68 55 42 32 24 15 8 360 353 346 342 336 332 330 325 315 309 298 291 283 277 273 272
100 87 22 270 266 292 281 328 355 51 176 125 198 167 196 177 166 148 113 95 71 50 36 29 27 21 12 7 360 355 348 344 338 327 317 311 304 296 290 286 282 281 278 277
348 210 69 292 327 4 346 345 359 18 51 59 120 238 180 166 155 158 152 118 76 48 25 19 14 8 5 360 352 351 347 344 336 330 325 315 307 303 299 292 287 284 281 279
7 128 79 276 351 341 320 228 184 240 278 157 173 224 165 179 186 187 201 236 19 10 359 357 358 4 352 346 347 345 350 344 339 341 337 328 321 314 304 298 294 289 284 280
188 106 106 253 18 359 253 300 216 222 225 234 237 179 179 182 185 261 270 259 321 343 347 354 357 354 350 348 339 338 340 337 337 336 333 331 329 325 324 322 317 305 294 288
173 128 118 143 223 285 283 236 190 181 266 187 181 193 192 174 179 207 195 260 325 336 350 348 345 343 338 333 329 326 326 327 327 326 326 327 327 326 324 320 317 316 314 307
81 72 119 140 182 232 251 199 159 107 292 185 175 188 183 173 197 226 234 300 321 328 329 330 329 325 316 309 308 311 312 314 314 317 319 319 321 318 318 318 318 316 315 310
356 353 198 195 252 285 225 158 132 101 245 169 185 197 182 187 219 325 314 305 300 302 310 315 312 311 314 313 311 310 309 309 313 315 315 316 318 317 315 312 312 314 314 311
190 164 211 146 221 281 154 110 167 224 278 179 189 200 201 218 234 258 277 286 295 305 306 303 301 303 304 308 311 301 302 306 311 312 311 313 313 316 317 316 313 313 312 311
256 192 207 190 219 239 186 204 210 210 185 192 199 199 203 206 220 243 257 269 285 294 296 299 303 306 311 317 318 300 319 309 312 307 314 317 314 317 318 317 313 313 313 310
264 193 225 2 269 233 223 224 235 226 222 206 205 205 210 225 232 243 254 265 273 278 282 288 295 306 313 318 324 311 321 317 319 317 312 317 320 322 321 318 315 311 307 306
220 161 218 255 279 275 253 239 234 221 215 212 212 217 218 223 228 232 238 249 263 272 281 289 302 313 321 322 330 320 316 318 318 319 328 332 332 328 322 317 314 313 309 305
187 206 194 245 219 207 257 280 226 217 218 216 215 211 217 229 239 249 258 269 277 286 292 299 308 313 319 321 324 323 318 320 326 327 332 335 328 328 326 319 323 323 314 319